Ogden, UT

9:14 AM MDT on April 26, 2017 (GMT -0600)
Ogden-Hinckley

Weather History for KOGD - April, 2013

Change the Weather History Date:

Monday, April 29, 2013

  Actual Average Record
Temperature  
Mean Temperature 58 °F -  
Max Temperature 72 °F 64 °F 85 °F (1987)
Min Temperature 45 °F 39 °F 25 °F (1990)
Degree Days  
Heating Degree Days 7    
Growing Degree Days 8 (Base 50)    
Moisture  
Dew Point 29 °F    
Average Humidity 33    
Maximum Humidity 53    
Minimum Humidity 19    
Precipitation  
Precipitation 0.00 in - - ()
Sea Level Pressure  
Sea Level Pressure 29.77 in    
Wind  
Wind Speed 7 mph (SW)    
Max Wind Speed 13 mph    
Max Gust Speed 21 mph    
Visibility 10 miles    
Events      
Averages and records for this station are not official NWS values.
T = Trace of Precipitation, MM = Missing Value Source: NWS Daily Summary

Daily Weather History Graph

Daily Weather History Graph

Search for Another Location

Airport or City:

Trip Planner

Search our weather history database for the weather conditions in past years. The results will help you decide how hot, cold, wet, or windy it might be!

Date:

Astronomy

Apr. 29, 2013 Rise Set
Actual Time 6:27 AM MDT 8:23 PM MDT
Civil Twilight 5:58 AM MDT 8:53 PM MDT
Nautical Twilight 5:21 AM MDT 9:29 PM MDT
Astronomical Twilight 4:42 AM MDT 10:09 PM MDT
Moon No Moon Rise 9:51 AM MDT (4/29)
Length of Visible Light 14h 55m
Length of Day
13h 55m
Waning Gibbous, 79% of the Moon is Illuminated
Apr 29
Waning Gibbous
May 2
Last Quarter
May 9
New
May 17
First Quarter
May 24
Full

Hourly Weather History & Observations

Time (MDT) Temp. Windchill Dew Point Humidity Pressure Visibility Wind Dir Wind Speed Gust Speed Precip Events Conditions
12:53 AM 57.0 °F - 30.0 °F 36% 29.86 in 10.0 mi North 5.8 mph - N/A   Clear
1:53 AM 53.1 °F - 32.0 °F 45% 29.87 in 10.0 mi NNW 5.8 mph - N/A   Clear
2:53 AM 51.1 °F - 33.1 °F 50% 29.86 in 10.0 mi WNW 3.5 mph - N/A   Clear
3:53 AM 51.1 °F - 28.9 °F 43% 29.85 in 10.0 mi Calm Calm - N/A   Clear
4:53 AM 46.9 °F - 30.0 °F 52% 29.87 in 10.0 mi South 8.1 mph - N/A   Clear
5:53 AM 45.0 °F 41.8 °F 28.9 °F 53% 29.87 in 10.0 mi South 5.8 mph - N/A   Clear
6:53 AM 45.0 °F 40.6 °F 28.9 °F 53% 29.88 in 10.0 mi South 8.1 mph - N/A   Clear
7:53 AM 48.9 °F - 30.0 °F 48% 29.87 in 10.0 mi South 10.4 mph - N/A   Clear
8:53 AM 55.9 °F - 33.1 °F 42% 29.87 in 10.0 mi South 8.1 mph - N/A   Clear
9:53 AM 61.0 °F - 30.9 °F 32% 29.86 in 10.0 mi South 5.8 mph - N/A   Clear
10:53 AM 63.0 °F - 30.9 °F 30% 29.84 in 10.0 mi SSW 11.5 mph - N/A   Clear
11:53 AM 64.0 °F - 26.1 °F 24% 29.83 in 10.0 mi WSW 9.2 mph - N/A   Clear
12:53 PM 64.9 °F - 25.0 °F 22% 29.81 in 10.0 mi West 9.2 mph - N/A   Clear
1:53 PM 66.0 °F - 24.1 °F 20% 29.79 in 10.0 mi SW 8.1 mph - N/A   Clear
2:53 PM 68.0 °F - 25.0 °F 20% 29.75 in 10.0 mi WNW 6.9 mph - N/A   Clear
3:53 PM 68.0 °F - 24.1 °F 19% 29.72 in 10.0 mi WSW 9.2 mph - N/A   Clear
4:53 PM 71.1 °F - 26.1 °F 19% 29.67 in 10.0 mi SSW 11.5 mph - N/A   Clear
5:53 PM 71.1 °F - 26.1 °F 19% 29.65 in 10.0 mi SW 8.1 mph - N/A   Clear
6:53 PM 70.0 °F - 26.1 °F 19% 29.63 in 10.0 mi SSW 10.4 mph - N/A   Clear
7:53 PM 68.0 °F - 26.1 °F 21% 29.60 in 10.0 mi SSW 8.1 mph - N/A   Clear
8:53 PM 64.0 °F - 30.9 °F 29% 29.60 in 10.0 mi West 3.5 mph - N/A   Clear
9:53 PM 63.0 °F - 34.0 °F 34% 29.62 in 10.0 mi North 9.2 mph - N/A   Clear
10:53 PM 61.0 °F - 32.0 °F 34% 29.63 in 10.0 mi North 12.7 mph 20.7 mph N/A   Mostly Cloudy
11:53 PM 59.0 °F - 30.9 °F 35% 29.65 in 10.0 mi NNW 10.4 mph - N/A   Scattered Clouds